Weather History for Morris, IL

Change the Weather History Date:

Tuesday, August 12, 2014

  Actual Average (KLOT) Record (KLOT)
Temperature  
Mean Temperature 66 °F 73 °F  
Max Temperature 73 °F 82 °F 96 °F (1995)
Min Temperature 59 °F 63 °F 49 °F (2004)
Degree Days  
Heating Degree Days 0 0  
Month to date heating degree days 0  
Since 1 June heating degree days 35  
Since 1 July heating degree days 2  
Cooling Degree Days 2 8  
Month to date cooling degree days 96  
Year to date cooling degree days 616  
Since 1 June cooling degree days 558  
Growing Degree Days 16 (Base 50)    
Moisture  
Dew Point 59 °F    
Average Humidity 81    
Maximum Humidity 100    
Minimum Humidity 59    
Precipitation  
Precipitation 0.00 in 0.13 in 1.43 in (1993)
Month to date precipitation 1.60  
Year to date precipitation 25.35  
Sea Level Pressure  
Sea Level Pressure 29.90 in    
Wind  
Wind Speed 7 mph (NW)    
Max Wind Speed 12 mph    
Max Gust Speed 20 mph    
Visibility 10 miles    
Events Rain , Thunderstorm    
T = Trace of Precipitation, MM = Missing Value Source: NWS Daily Summary

Daily Weather History Graph

Daily Weather History Graph

Search for Another Location

Airport:

Trip Planner

Search our weather history database for the weather conditions in past years. The results will help you decide how hot, cold, wet, or windy it might be!

Date:

Astronomy

Aug. 12, 2014 Rise Set
Actual Time 5:59 AM CDT 7:57 PM CDT
Civil Twilight 5:29 AM CDT 8:27 PM CDT
Nautical Twilight 4:52 AM CDT 9:03 PM CDT
Astronomical Twilight 4:12 AM CDT 9:43 PM CDT
Moon 9:01 PM CDT (8/12) 8:18 AM CDT (8/12)
Length of Visible Light 14h 57m
Length of Day
13h 57m
Waning Gibbous, 94% of the Moon is Illuminated
Aug 12
Waning Gibbous
Aug 17
Last Quarter
Aug 25
New
Sep 2
First Quarter
Sep 8
Full

Hourly Weather History & Observations

Time (CDT) Temp. Dew Point Humidity Pressure Visibility Wind Dir Wind Speed Gust Speed Precip Events Conditions
3:15 AM 64.4 °F 64.4 °F 100% 29.78 in 10.0 mi NW 6.9 mph - N/A   Overcast
3:35 AM 64.9 °F 63.5 °F 95% 29.78 in 10.0 mi NW 8.1 mph 16.1 mph N/A Rain Light Rain
3:55 AM 64.6 °F 63.9 °F 98% 29.78 in 7.0 mi WNW 10.4 mph - N/A Rain Light Rain
4:15 AM 64.6 °F 63.7 °F 97% 29.79 in 10.0 mi WNW 10.4 mph - N/A Thunderstorm Overcast
4:35 AM 64.6 °F 63.5 °F 96% 29.79 in 10.0 mi NW 11.5 mph - N/A   Overcast
4:55 AM 64.6 °F 63.1 °F 95% 29.79 in 10.0 mi NW 9.2 mph 16.1 mph N/A   Overcast
5:15 AM 64.4 °F 62.6 °F 94% 29.80 in 10.0 mi NW 9.2 mph 16.1 mph N/A   Overcast
5:35 AM 64.8 °F 62.2 °F 92% 29.81 in 10.0 mi NW 8.1 mph 16.1 mph N/A   Overcast
5:55 AM 64.4 °F 62.4 °F 93% 29.82 in 10.0 mi WNW 8.1 mph - N/A   Overcast
6:15 AM 64.4 °F 62.2 °F 93% 29.82 in 10.0 mi WNW 9.2 mph - N/A   Overcast
6:35 AM 64.4 °F 61.9 °F 92% 29.83 in 10.0 mi NW 8.1 mph - N/A   Overcast
6:55 AM 64.6 °F 61.7 °F 90% 29.83 in 10.0 mi NW 6.9 mph - N/A   Overcast
7:15 AM 64.8 °F 60.8 °F 87% 29.84 in 10.0 mi NW 10.4 mph - N/A   Overcast
7:35 AM 63.5 °F 59.9 °F 88% 29.85 in 7.0 mi NW 8.1 mph 19.6 mph N/A   Overcast
7:55 AM 62.8 °F 59.7 °F 90% 29.85 in 10.0 mi NW 8.1 mph - N/A   Overcast
8:15 AM 63.5 °F 59.0 °F 85% 29.86 in 10.0 mi NW 5.8 mph - N/A   Overcast
8:35 AM 63.5 °F 59.2 °F 86% 29.86 in 10.0 mi NW 4.6 mph - N/A   Overcast
8:55 AM 63.7 °F 57.4 °F 80% 29.86 in 10.0 mi NW 5.8 mph - N/A   Overcast
9:15 AM 63.9 °F 56.3 °F 76% 29.87 in 10.0 mi NW 8.1 mph 16.1 mph N/A   Overcast
9:35 AM 64.4 °F 56.3 °F 75% 29.87 in 10.0 mi NW 8.1 mph 16.1 mph N/A   Overcast
9:55 AM 64.4 °F 56.1 °F 74% 29.88 in 10.0 mi NW 10.4 mph 19.6 mph N/A   Overcast
10:15 AM 63.9 °F 56.3 °F 76% 29.88 in 10.0 mi NNW 4.6 mph - N/A   Overcast
10:35 AM 64.4 °F 56.5 °F 75% 29.89 in 10.0 mi NW 6.9 mph 19.6 mph N/A   Overcast
10:55 AM 63.5 °F 56.5 °F 78% 29.90 in 10.0 mi NNW 6.9 mph 17.3 mph N/A   Overcast
12:35 PM 65.3 °F 56.5 °F 73% 29.91 in 10.0 mi NNW 5.8 mph - N/A   Overcast
12:55 PM 65.3 °F 56.5 °F 73% 29.91 in 10.0 mi NW 8.1 mph - N/A   Overcast
1:15 PM 66.9 °F 57.2 °F 71% 29.92 in 10.0 mi NW 9.2 mph - N/A   Overcast
1:35 PM 66.7 °F 56.5 °F 70% 29.92 in 10.0 mi NW 8.1 mph 16.1 mph N/A   Overcast
1:55 PM 67.1 °F 57.2 °F 70% 29.92 in 10.0 mi NW 6.9 mph - N/A   Overcast
2:15 PM 67.6 °F 57.2 °F 69% 29.92 in 10.0 mi NW 10.4 mph - N/A   Overcast
2:35 PM 68.4 °F 57.9 °F 69% 29.92 in 10.0 mi NW 5.8 mph - N/A   Overcast
2:55 PM 69.8 °F 58.3 °F 67% 29.92 in 10.0 mi NW 8.1 mph - N/A   Overcast
3:15 PM 69.1 °F 57.2 °F 66% 29.93 in 10.0 mi NW 6.9 mph - N/A   Overcast
3:35 PM 69.8 °F 57.2 °F 64% 29.93 in 10.0 mi NNW 4.6 mph - N/A   Overcast
3:55 PM 71.4 °F 57.9 °F 62% 29.92 in 10.0 mi North 4.6 mph - N/A   Mostly Cloudy
4:15 PM 71.4 °F 57.2 °F 61% 29.93 in 10.0 mi NNW 8.1 mph - N/A   Mostly Cloudy
4:35 PM 71.1 °F 57.4 °F 62% 29.93 in 10.0 mi NW 6.9 mph - N/A   Overcast
5:15 PM 72.0 °F 57.2 °F 60% 29.94 in 10.0 mi NNW 4.6 mph - N/A   Mostly Cloudy
5:35 PM 73.0 °F 58.6 °F 61% 29.93 in 10.0 mi Calm Calm - N/A   Scattered Clouds
5:55 PM 71.8 °F 57.2 °F 60% 29.94 in 10.0 mi NNW 3.5 mph - N/A   Mostly Cloudy
6:15 PM 72.1 °F 57.2 °F 59% 29.94 in 10.0 mi NNW 4.6 mph - N/A   Overcast
6:55 PM 70.5 °F 58.3 °F 65% 29.94 in 10.0 mi Calm Calm - N/A   Overcast
7:15 PM 70.5 °F 59.4 °F 68% 29.95 in 10.0 mi Calm Calm - N/A   Overcast
7:35 PM 69.3 °F 61.0 °F 75% 29.95 in 10.0 mi Calm Calm - N/A   Overcast
7:55 PM 65.7 °F 61.0 °F 85% 29.95 in 10.0 mi Calm Calm - N/A   Scattered Clouds
8:15 PM 64.2 °F 60.1 °F 86% 29.96 in 10.0 mi Calm Calm - N/A   Clear
8:35 PM 63.3 °F 61.0 °F 92% 29.96 in 10.0 mi Calm Calm - N/A   Scattered Clouds
8:55 PM 63.9 °F 61.5 °F 92% 29.97 in 10.0 mi Calm Calm - N/A   Mostly Cloudy
9:15 PM 64.4 °F 62.6 °F 94% 29.98 in 10.0 mi Calm Calm - N/A   Mostly Cloudy
9:35 PM 64.0 °F 62.2 °F 94% 29.98 in 10.0 mi Calm Calm - N/A   Mostly Cloudy
9:55 PM 64.4 °F 60.8 °F 88% 29.98 in 10.0 mi Calm Calm - N/A   Mostly Cloudy
10:15 PM 64.4 °F 61.2 °F 89% 29.98 in 10.0 mi Calm Calm - N/A   Overcast
10:35 PM 63.3 °F 60.4 °F 90% 29.98 in 10.0 mi Calm Calm - N/A   Scattered Clouds
10:55 PM 62.2 °F 60.1 °F 93% 29.98 in 5.0 mi West 3.5 mph - N/A   Clear
11:15 PM 62.1 °F 59.4 °F 91% 29.99 in 10.0 mi West 3.5 mph - N/A   Scattered Clouds
11:35 PM 60.6 °F 58.1 °F 91% 29.99 in 10.0 mi West 4.6 mph - N/A   Scattered Clouds
11:55 PM 59.5 °F 57.2 °F 92% 29.99 in 10.0 mi West 4.6 mph - N/A   Clear